National Weather Service United States Department of Commerce


063
ASUS42 KCAE 261010
RWRCAE
REGIONAL WEATHER ROUNDUP
NATIONAL WEATHER SERVICE COLUMBIA SC
600 AM EDT MON JUN 26 2017

NOTE: "FAIR" INDICATES FEW OR NO CLOUDS BELOW 12,000 FEET WITH NO
SIGNIFICANT WEATHER AND/OR OBSTRUCTIONS TO VISIBILITY.

NOT ALL STATIONS ARE QUALITY CONTROLLED BY THE NATIONAL
WEATHER SERVICE. USE DATA WITH CAUTION...ESPECIALLY
DEWPOINT OBSERVATIONS.

SCZ001>056-GAZ040-063>065-077-261100-
...UPSTATE SOUTH CAROLINA...

CITY SKY/WX TMP DP RH WIND PRES REMARKS
ANDERSON PTCLDY 64 60 87 N5 30.14R
LIBERTY CLOUDY 59 59 99 CALM 30.14R
SPARTANBURG CLEAR 61 54 77 N3 30.14S
CLEMSON CLOUDY 65 60 84 CALM 30.15S
GREENVILLE MOCLDY 66 51 58 N3 30.15S
GREENWOOD PTCLDY 62 58 86 CALM 30.14S
GREER PTCLDY 63 53 70 CALM 30.14R
ROCK HILL CLEAR 61 59 93 N3 30.13S
CHESTER SUNNY 61 57 88 N5 30.14S
LAURENS MOSUNNY 61 59 94 N6 30.13S


...CENTRAL SOUTH CAROLINA...

CITY SKY/WX TMP DP RH WIND PRES REMARKS
COLUMBIA APT PTCLDY 72 64 76 N3 30.09R
COLUMBIA OWENS CLOUDY 74 60 61 CALM 30.10R
MCENTIRE ANGB MOCLDY 71 60 69 CALM 30.09R
ORANGEBURG CLOUDY 72 67 84 N6 30.08R
SUMTER SHAW CLOUDY 72 64 75 N6 30.07R
NEWBERRY SUNNY 63 61 94 N3 30.15S
AIKEN CLOUDY 70 63 78 N6 30.14R
BARNWELL FAIR 72 68 88 NE5 30.08R
MANNING FAIR 72 70 94 NE15 30.07R
CAMDEN CLOUDY 70 59 68 CALM 30.11R
LANCASTER SUNNY 63 63 100 CALM 30.13R
WINNSBORO SUNNY 64 61 88 N6 30.11S


...EASTERN AND COASTAL SOUTH CAROLINA...

CITY SKY/WX TMP DP RH WIND PRES REMARKS
MYRTLE BEACH MOCLDY 73 70 88 N12 30.06S
N MYRTLE BCH PTCLDY 72 69 90 NE7 30.06R
CONWAY CLOUDY 70 70 100 CALM 30.07R
MARION CLOUDY 70 66 88 N5 30.08R
HARTSVILLE FAIR 68 59 73 N6 30.10R
FLORENCE MOCLDY 73 63 70 N9 30.09R
DARLINGTON CLEAR 70 64 81 N7 30.10R
CHARLESTON APT CLOUDY 73 72 96 N6 30.05R
MOUNT PLEASANT FAIR 75 73 94 CALM 30.05R
WALTERBORO FOG 70 70 100 CALM 30.07R VSB 1
BEAUFORT PTCLDY 74 74 100 CALM 30.05R


...EASTERN GEORGIA...

CITY SKY/WX TMP DP RH WIND PRES REMARKS
AUGUSTA BUSH F MOCLDY 74 67 78 N6 30.08R
AUGUSTA DANIEL MOCLDY 73 61 65 N8 30.10R
THOMSON MOCLDY 69 62 80 E5 30.16S
WASHINGTON FAIR 68 68 100 CALM 30.13R
CLAXTON CLOUDY 73 73 99 CALM 30.06S FOG
SYLVANIA PTSUNNY 75 75 100 CALM 30.07S
STATESBORO CLOUDY 76 32 20 CALM 30.06S
SAVANNAH CLOUDY 75 73 93 CALM 30.06S


...SOUTHERN NORTH CAROLINA...

CITY SKY/WX TMP DP RH WIND PRES REMARKS
CHARLOTTE PTCLDY 62 58 86 NW6 30.14R
MONROE N/A 65 57 75 N6 30.12R
WADESBORO SUNNY 61 59 91 CALM 30.11S
ROCKINGHAM SUNNY 66 59 79 CALM 30.11R
ASHEVILLE CLEAR 52 49 89 N6 30.22S

$$